Dewpoint
42 44 44 45 46 46 46 45 43 39 37 40 40 43 44 45 46 47 46 48 50 51 51 52 52 52 53 53 54 54 54 54 54 54 55 56 56 57
40 40 40 42 41 41 42 43 44 43 40 41 41 43 44 44 46 46 45 47 49 50 51 52 52 52 52 53 53 54 54 54 54 54 55 55 55 56
38 38 39 39 38 39 38 37 38 39 39 38 40 39 38 42 44 45 45 45 47 49 50 51 52 52 52 53 53 54 54 54 54 55 55 55 55 57
37 37 37 37 35 35 35 36 37 38 37 35 35 37 39 42 44 44 43 46 47 48 50 51 51 51 52 53 53 53 53 54 54 54 55 55 55 56
35 35 35 35 33 33 35 35 36 37 38 38 37 40 41 42 42 43 45 47 46 48 50 50 49 50 52 51 53 50 49 50 50 51 53 53 54 54
34 34 33 33 33 34 34 35 37 39 41 40 39 38 38 40 44 44 43 45 44 46 46 47 49 50 49 50 49 48 47 48 49 49 51 51 52 53
33 34 35 36 36 36 36 37 38 39 39 37 37 36 35 37 39 41 41 42 44 45 44 45 45 44 45 47 48 48 48 47 48 48 49 49 50 50
33 34 34 36 36 36 36 39 40 38 37 37 37 37 36 38 41 40 40 40 39 44 42 41 43 43 44 47 47 46 46 46 46 46 46 48 48 49
34 33 33 33 34 34 36 39 38 38 37 38 35 35 37 37 38 38 38 38 37 39 39 38 40 41 43 46 46 44 43 43 43 44 44 45 47 48
33 33 33 33 33 33 34 35 36 37 36 34 34 34 35 34 34 37 37 37 37 38 39 37 40 40 43 44 45 43 42 42 41 42 42 43 44 46
33 33 33 32 34 35 33 34 34 36 36 36 35 35 35 35 34 34 35 33 32 32 36 34 37 37 38 40 41 40 39 40 40 40 41 41 41 42
32 32 34 34 35 35 33 34 33 32 31 31 31 31 32 30 34 33 33 31 30 30 34 32 33 33 33 38 38 36 35 37 37 38 38 39 39 38
32 32 31 34 35 36 36 33 33 33 32 32 31 29 28 28 29 29 29 31 30 30 32 33 31 31 33 33 34 34 35 35 35 35 36 37 37 37
33 33 33 34 35 35 35 35 35 35 33 30 28 27 26 25 25 25 26 27 31 31 31 33 30 31 29 28 29 32 33 35 34 33 33 34 35 35
32 33 35 37 36 35 36 35 35 32 30 27 27 26 23 23 22 21 23 26 28 30 30 31 31 31 30 28 28 28 28 30 32 31 32 32 33 33
33 32 32 33 35 35 35 34 33 30 29 28 27 26 23 21 22 21 17 18 21 23 27 32 32 31 29 29 27 26 27 27 29 28 28 30 30 31
33 33 31 30 29 32 32 31 30 29 28 27 26 25 26 25 24 19 17 16 24 19 19 24 27 31 30 29 27 27 25 27 27 28 28 28 29 28
30 29 32 32 30 29 29 30 28 29 27 27 26 25 25 22 19 17 15 18 22 19 14 17 19 20 21 25 30 26 26 25 25 28 28 27 26 26
30 30 32 33 32 29 28 29 28 26 27 27 25 25 23 20 24 24 24 23 18 15 15 16 16 20 19 19 25 31 27 26 26 25 27 27 25 26
30 31 32 33 33 31 29 28 29 28 28 26 25 24 22 22 20 20 16 13 12 11 12 13 17 14 22 18 19 24 31 29 28 24 22 25 26 26
29 30 29 31 33 33 31 30 30 29 27 26 25 23 19 16 19 16 16 23 22 19 17 13 16 26 23 23 20 24 26 29 30 25 23 24 21 21
31 32 30 32 33 33 33 31 30 29 28 25 24 22 20 18 17 17 17 16 18 15 13 15 18 16 22 22 19 18 22 26 27 28 28 28 21 18
32 32 31 32 33 33 33 32 30 28 27 25 23 21 19 18 20 20 19 19 16 9 10 14 15 15 23 20 22 18 18 19 23 24 24 28 29 30
Lifted_Index
16 16 15 15 15 14 14 14 13 11 10 11 12 13 13 13 13 13 13 13 12 11 10 9 9 9 9 9 8 8 8 8 8 7 7 6 6 5
18 17 17 17 16 16 16 16 15 13 12 12 13 14 14 14 14 13 13 13 12 11 11 10 10 9 9 9 9 8 8 8 8 7 7 6 6 6
19 18 18 18 18 18 18 18 18 17 15 14 15 15 15 15 14 14 13 13 13 12 11 11 10 10 9 9 9 8 8 8 8 7 7 7 6 6
19 19 19 19 19 19 19 19 19 18 17 16 16 16 16 15 14 14 13 13 12 12 11 11 11 10 10 9 9 8 8 8 8 7 7 7 7 7
18 18 18 19 18 19 19 18 18 18 17 16 15 15 15 15 14 13 13 12 12 12 12 11 11 11 10 10 9 9 8 8 8 7 7 7 8 8
17 17 18 18 18 18 18 18 18 17 16 16 15 15 15 14 14 13 13 12 12 12 12 11 11 11 11 10 10 9 9 8 8 7 7 7 7 7
15 16 17 17 18 18 18 18 17 17 16 16 15 15 15 15 14 14 13 13 12 12 12 11 11 11 11 11 10 10 9 9 8 8 7 6 6 6
14 14 15 16 17 18 18 18 17 17 16 16 15 15 15 15 15 15 14 14 13 12 12 11 11 11 10 11 10 10 9 9 9 8 7 6 6 5
14 14 14 15 16 17 17 17 17 17 17 17 16 16 17 17 17 17 16 15 15 14 12 11 10 10 10 10 10 10 9 9 9 9 8 7 6 5
13 13 13 14 14 15 15 15 15 16 17 18 18 18 18 18 18 18 17 16 16 15 14 13 11 10 9 9 9 9 9 9 9 8 8 7 6 6
12 12 12 12 13 13 13 12 12 13 15 17 18 18 18 19 19 18 17 16 15 15 15 14 13 11 10 9 9 9 9 9 9 8 8 7 7 7
12 12 11 11 11 12 12 11 10 11 13 14 15 16 17 18 18 18 17 15 13 14 15 16 14 12 11 9 9 9 9 9 9 8 8 8 8 8
13 12 12 11 11 11 11 10 10 11 11 12 13 14 15 16 17 17 17 15 14 14 16 16 15 13 12 10 9 9 9 9 9 9 8 8 8 9
14 13 12 12 11 11 11 10 10 11 11 10 11 11 12 13 15 16 16 16 15 15 16 16 15 14 13 12 10 10 10 10 10 10 9 9 9 9
14 14 13 12 11 11 11 11 10 10 10 9 9 10 11 12 13 14 15 15 15 15 16 16 15 14 13 12 12 11 12 12 11 11 10 10 9 9
13 13 13 12 11 11 10 10 10 10 10 9 9 10 10 11 12 13 14 14 14 14 15 15 15 14 14 13 12 12 12 12 12 12 12 11 11 11
13 13 13 12 11 10 10 10 10 10 9 9 9 9 10 10 10 12 12 13 13 12 13 14 14 14 14 13 12 12 12 13 13 14 13 13 13 13
12 12 12 12 11 10 10 9 9 10 9 9 9 9 9 9 9 10 11 12 12 11 12 13 13 13 13 12 12 13 13 13 14 14 14 14 14 14
10 10 11 11 10 10 9 9 9 9 9 9 8 8 8 8 8 9 10 11 11 11 11 12 13 13 12 11 12 13 13 13 13 13 14 14 14 15
9 9 10 10 9 9 9 8 8 8 8 8 7 7 7 7 7 8 9 10 10 10 10 11 13 13 12 12 12 13 14 14 14 13 13 14 14 15
9 9 9 9 8 8 7 7 7 7 7 6 6 5 6 6 7 8 9 10 10 10 10 12 13 14 13 12 11 12 13 15 15 14 14 14 14 13
8 8 8 7 7 6 6 5 5 5 6 5 5 5 6 6 7 8 9 10 10 10 11 12 13 13 13 12 11 11 12 14 15 15 15 15 14 14
7 7 7 7 6 6 5 5 4 5 5 5 5 5 6 6 7 8 9 10 11 11 12 12 12 12 12 11 11 11 11 13 14 14 15 16 16 16